#datint,netname,site,siteID,timestamp,IntT,BattV,AirT2,AirT,AirT_Avg,AirT_Max,AirT_Min,RH_Avg,RH_Max,RH_Min,EA_Avg,Td_Avg,Td_Max,Td_Min,WindS_Smp,WindS_Avg,WindD_Avg,WindD_SD,WindS_Max,ETo,ETr,SoilT4,SoilT8,SoilVWC8,SolarW_Avg,wetstate_Avg,wetT_Avg,Precip_accum,Precip_WPG,Precip_TB
15min,AgWx,beryljct,423,28FEB2020:00:00:00,30.1,12.85,30.6,29.9,29.9,30.9,29.1,76,81,74,0.421,23.3,24.1,22.5,3.069,3.7,310,6.4,4.7,-0.00004,-0.00004,35.9,36.0,22,0,.,.,9.37,0.00,0.00
15min,AgWx,beryljct,423,28FEB2020:00:15:00,29.5,12.85,28.5,28.4,28.6,30.0,27.8,79,81,75,0.428,22.8,23.4,22.3,1.622,1.8,321,15,2.7,-0.00011,-0.00014,35.9,36.0,21,0,.,.,9.37,0.00,0.00
15min,AgWx,beryljct,423,28FEB2020:00:30:00,28.9,12.84,26.0,26.4,28.1,29.5,25.9,79,85,76,0.412,22.5,23.8,20.9,5.152,2.4,342,83,5.2,-0.00009,-0.00011,35.8,36.0,21,0,.,.,9.37,0.01,0.00
15min,AgWx,beryljct,423,28FEB2020:00:45:00,28.3,12.83,27.3,26.9,26.8,27.0,26.2,86,87,85,0.426,23.2,23.5,22.3,4.713,5.3,181,4.7,7.3,-0.00004,-0.00004,35.7,36.0,21,0,.,.,9.37,0.00,0.00
15min,AgWx,beryljct,423,28FEB2020:01:00:00,28.1,12.82,29.3,28.6,27.9,28.8,26.7,84,87,79,0.429,23.5,24.3,22.6,4.034,4.7,181,10,7.4,-0.00004,-0.00004,35.6,36.0,21,0,.,.,9.37,0.00,0.00
15min,AgWx,beryljct,423,28FEB2020:01:15:00,28.1,12.81,25.8,27.2,29.0,30.2,27.2,77,81,74,0.393,22.8,23.7,21.3,2.499,3.6,157,16,4.7,-0.00005,-0.00005,35.5,36.0,21,0,.,.,9.37,0.00,0.00
15min,AgWx,beryljct,423,28FEB2020:01:30:00,27.6,12.78,26.5,25.5,25.9,27.1,25.3,85,87,79,0.396,21.9,23.0,21.0,1.074,1.2,146,23,3.0,-0.00014,-0.00019,35.5,36.0,21,0,.,.,9.37,0.00,0.00
15min,AgWx,beryljct,423,28FEB2020:01:45:00,26.9,12.8,25.9,26.1,26.3,26.9,25.5,85,86,83,0.405,22.3,22.9,21.6,2.17,0.8,115,15,2.2,-0.00016,-0.00023,35.4,36.0,21,0,.,.,9.37,0.00,0.00
15min,AgWx,beryljct,423,28FEB2020:02:00:00,26.5,12.79,24.6,25.0,25.7,26.1,24.9,85,86,84,0.395,21.8,22.2,21.2,3.793,2.7,195,16,3.8,-0.00009,-0.00010,35.3,36.0,22,0,.,.,9.37,0.00,0.00
15min,AgWx,beryljct,423,28FEB2020:02:15:00,26.0,12.77,24.1,23.6,24.2,25.0,23.5,87,89,86,0.386,21.0,21.5,20.4,2.828,2.1,146,18,4.3,-0.00011,-0.00013,35.3,36.0,21,0,.,.,9.37,0.00,0.00
15min,AgWx,beryljct,423,28FEB2020:02:30:00,25.3,12.77,23.3,22.6,23.0,23.7,22.3,89,90,89,0.374,20.3,21.0,19.6,0.986,1.8,173,41,4.2,-0.00012,-0.00015,35.2,36.0,21,0,.,.,9.38,0.00,0.00
15min,AgWx,beryljct,423,28FEB2020:02:45:00,24.7,12.76,24.2,23.8,23.5,23.9,22.6,90,91,89,0.395,21.0,21.5,20.2,3.288,1.0,289,21,3.3,-0.00015,-0.00021,35.2,35.9,21,0,.,.,9.37,0.00,0.00
15min,AgWx,beryljct,423,28FEB2020:03:00:00,24.4,12.76,22.8,22.5,23.2,23.8,22.5,91,92,91,0.381,21.0,21.6,20.6,3.858,3.8,330,4.8,4.8,-0.00007,-0.00008,35.1,35.9,21,0,.,.,9.37,0.00,0.00
15min,AgWx,beryljct,423,28FEB2020:03:15:00,24.1,12.75,23.3,22.8,22.3,22.8,22.0,93,94,92,0.391,20.6,21.2,20.3,3.113,3.1,308,15,4.0,-0.00009,-0.00011,35.0,35.9,21,0,.,.,9.37,0.00,0.00
15min,AgWx,beryljct,423,28FEB2020:03:30:00,23.8,12.73,22.4,22.0,22.2,22.9,21.6,93,94,92,0.376,20.4,21.3,19.6,1.447,3.1,321,16,4.6,-0.00009,-0.00010,35.0,35.9,22,0,.,.,9.38,0.00,0.00
15min,AgWx,beryljct,423,28FEB2020:03:45:00,23.4,12.72,22.4,22.5,23.2,24.5,22.0,91,93,88,0.365,21.1,22.5,19.6,2.28,1.2,297,32,2.4,-0.00014,-0.00019,34.9,35.9,21,0,.,.,9.38,0.00,0.00
15min,AgWx,beryljct,423,28FEB2020:04:00:00,23.2,12.73,22.3,22.2,22.3,22.7,21.9,91,93,89,0.377,20.1,20.5,19.5,3.924,2.9,157,5.9,4.0,-0.00009,-0.00011,34.8,35.9,21,0,.,.,9.38,0.00,0.00
15min,AgWx,beryljct,423,28FEB2020:04:15:00,22.9,12.72,22.1,21.9,21.6,22.1,21.4,93,94,92,0.376,19.8,20.4,19.5,1.425,2.1,163,16,4.0,-0.00011,-0.00014,34.8,35.9,21,0,.,.,9.38,0.00,0.00
15min,AgWx,beryljct,423,28FEB2020:04:30:00,22.6,12.7,22.6,21.6,21.6,21.9,21.1,93,93,92,0.369,19.7,20.3,19.1,2.565,0.8,184,0.0,2.6,-0.00015,-0.00021,34.7,35.8,21,0,.,.,9.38,0.00,0.00
15min,AgWx,beryljct,423,28FEB2020:04:45:00,22.3,12.7,22.6,22.2,21.9,22.2,21.6,92,93,91,0.372,19.9,20.3,19.5,1.315,2.0,187,8.3,2.6,-0.00011,-0.00014,34.7,35.8,21,0,.,.,9.38,0.00,0.00
15min,AgWx,beryljct,423,28FEB2020:05:00:00,22.2,12.7,22.4,22.2,22.0,22.4,21.6,91,92,90,0.374,19.7,20.4,19.3,2.631,1.7,182,13,2.8,-0.00012,-0.00015,34.6,35.8,21,0,.,.,9.38,0.00,0.00
15min,AgWx,beryljct,423,28FEB2020:05:15:00,22.1,12.7,22.4,22.2,22.4,22.8,22.1,91,92,90,0.370,20.1,20.7,19.7,0,1.1,186,2.1,2.8,-0.00014,-0.00019,34.6,35.8,21,0,.,.,9.38,0.00,0.00
15min,AgWx,beryljct,423,28FEB2020:05:30:00,21.8,12.69,21.6,21.4,21.7,22.2,21.4,91,92,90,0.358,19.5,20.0,19.1,0,0.3,185,0.0,1.0,-0.00017,-0.00026,34.5,35.8,21,0,.,.,9.38,0.00,0.00
15min,AgWx,beryljct,423,28FEB2020:05:45:00,21.5,12.68,22.6,22.5,22.0,22.9,21.4,91,92,90,0.372,19.8,20.7,19.1,0.526,0.2,188,0.0,1.1,-0.00018,-0.00028,34.5,35.7,22,0,.,.,9.38,0.00,0.00
15min,AgWx,beryljct,423,28FEB2020:06:00:00,21.5,12.68,21.8,21.2,21.6,22.5,20.9,90,91,89,0.354,19.1,20.0,18.4,2.411,1.1,298,31,2.5,-0.00014,-0.00019,34.4,35.7,21,0,.,.,9.38,0.00,0.00
15min,AgWx,beryljct,423,28FEB2020:06:15:00,21.4,12.68,20.7,20.4,20.7,21.5,20.1,91,92,90,0.346,18.5,19.4,17.8,1.578,2.3,314,9.0,3.2,-0.00010,-0.00012,34.4,35.7,21,0,.,.,9.38,0.00,0.00
15min,AgWx,beryljct,423,28FEB2020:06:30:00,21.2,12.66,22.1,21.8,20.9,21.8,20.4,92,93,92,0.373,18.9,20.1,18.3,0,0.4,274,27,1.6,0.00001,0.00001,34.3,35.7,21,0,.,.,9.38,0.00,0.00
15min,AgWx,beryljct,423,28FEB2020:06:45:00,21.1,12.65,21.3,21.1,21.3,21.8,21.0,92,93,91,0.357,19.3,20.0,18.9,0,1.2,210,9.5,2.3,0.00002,0.00003,34.3,35.7,21,0,.,.,9.38,0.00,0.00
15min,AgWx,beryljct,423,28FEB2020:07:00:00,21.1,12.64,21.9,21.1,21.2,21.5,20.8,92,92,91,0.355,19.2,19.7,18.7,2.959,1.4,175,18,3.1,0.00002,0.00003,34.3,35.7,21,1,.,.,9.38,0.00,0.00
15min,AgWx,beryljct,423,28FEB2020:07:15:00,21.3,12.65,21.8,21.5,21.9,22.8,21.1,92,93,90,0.361,19.8,20.9,19.0,0,1.1,163,1.4,3.1,0.00003,0.00004,34.2,35.6,21,4,.,.,9.38,0.00,0.00
15min,AgWx,beryljct,423,28FEB2020:07:30:00,21.3,12.68,21.6,21.4,21.6,21.8,21.4,92,92,91,0.361,19.7,19.9,19.3,3.288,1.8,166,2.6,3.9,0.00006,0.00008,34.2,35.6,21,13,.,.,9.38,0.00,0.00
15min,AgWx,beryljct,423,28FEB2020:07:45:00,21.6,12.69,21.7,21.4,21.3,21.5,21.0,92,92,91,0.360,19.2,19.5,18.9,3.069,3.2,170,12,4.4,0.00013,0.00016,34.1,35.6,21,32,.,.,9.38,0.00,0.00
15min,AgWx,beryljct,423,28FEB2020:08:00:00,21.9,12.75,22.7,22.2,21.6,22.2,21.2,92,92,91,0.373,19.6,20.1,19.1,0.702,1.9,175,5.2,4.2,0.00021,0.00024,34.1,35.6,21,59,.,.,9.38,0.00,0.00
15min,AgWx,beryljct,423,28FEB2020:08:15:00,22.4,12.81,24.0,23.6,23.0,23.7,22.2,91,91,90,0.391,20.8,21.4,20.1,0,0.5,173,3.1,1.4,0.00033,0.00036,34.0,35.6,21,95,.,.,9.38,0.00,0.00
15min,AgWx,beryljct,423,28FEB2020:08:30:00,23.3,12.97,25.6,24.8,24.1,24.8,23.5,91,91,90,0.410,21.8,22.4,21.2,0,0.3,169,2.9,1.3,0.00043,0.00046,34.0,35.6,21,124,.,.,9.38,0.00,0.00
15min,AgWx,beryljct,423,28FEB2020:08:45:00,24.4,13.36,27.3,26.8,25.9,26.8,24.8,91,91,90,0.443,23.5,24.4,22.4,0,0.0,166,0.0,0.3,0.00063,0.00068,34.0,35.6,21,184,.,.,9.37,0.00,0.00
15min,AgWx,beryljct,423,28FEB2020:09:00:00,26.4,14.86,29.3,28.5,27.7,28.5,26.9,88,90,86,0.452,24.6,24.9,24.3,0.351,0.5,115,0.3,1.5,0.00094,0.00100,33.9,35.5,22,277,.,.,9.38,0.00,0.00
15min,AgWx,beryljct,423,28FEB2020:09:15:00,28.9,14.79,31.3,30.4,29.7,30.4,28.6,82,85,80,0.470,24.8,25.6,24.1,1.666,0.6,136,10,2.0,0.00119,0.00128,33.9,35.5,21,337,.,.,9.37,0.00,0.00
15min,AgWx,beryljct,423,28FEB2020:09:30:00,31.5,14.78,31.2,31.4,31.3,31.9,30.5,77,82,75,0.456,25.1,26.0,24.1,0,1.1,168,13,2.6,0.00139,0.00151,33.9,35.5,21,383,.,.,9.37,0.00,0.00
15min,AgWx,beryljct,423,28FEB2020:09:45:00,33.8,14.76,32.2,32.3,31.7,32.3,31.2,76,78,74,0.465,24.9,25.4,24.2,0,0.1,62,19,0.8,0.00130,0.00139,33.9,35.5,21,335,.,.,9.37,0.00,0.00
15min,AgWx,beryljct,423,28FEB2020:10:00:00,35.6,14.72,32.9,32.6,32.8,33.8,32.3,76,78,74,0.471,26.0,27.2,25.2,1.118,0.5,68,31,2.3,0.00137,0.00148,33.8,35.5,21,347,.,.,9.37,0.00,0.00
15min,AgWx,beryljct,423,28FEB2020:10:15:00,36.7,14.65,34.4,34.0,33.1,34.0,32.6,75,76,74,0.493,25.9,26.7,25.4,0,0.3,14,0.4,1.6,0.00136,0.00145,33.8,35.4,21,334,.,.,9.38,0.00,0.00
15min,AgWx,beryljct,423,28FEB2020:10:30:00,37.7,14.66,34.7,34.8,34.4,35.4,33.7,73,75,71,0.488,26.6,27.2,26.2,0,0.1,64,23,1.2,0.00146,0.00156,33.7,35.4,21,350,.,.,9.37,0.00,0.00
15min,AgWx,beryljct,423,28FEB2020:10:45:00,38.7,14.69,36.0,36.3,35.3,36.4,34.7,68,72,64,0.484,25.9,26.9,24.7,2.718,1.1,354,21,2.7,0.00180,0.00196,33.7,35.4,21,439,.,.,9.37,0.00,0.00
15min,AgWx,beryljct,423,28FEB2020:11:00:00,40.1,14.64,37.3,37.0,36.7,37.1,36.0,61,66,57,0.421,24.4,26.0,23.0,1.622,1.4,355,16,3.1,0.00195,0.00215,33.7,35.4,21,460,.,.,9.37,0.00,0.00
15min,AgWx,beryljct,423,28FEB2020:11:15:00,41.4,14.58,37.8,37.8,37.6,38.4,36.8,55,57,52,0.436,22.9,24.6,20.9,2.784,1.8,9.5,27,3.1,0.00201,0.00224,33.7,35.4,21,463,.,.,9.37,0.00,0.00
15min,AgWx,beryljct,423,28FEB2020:11:30:00,42.4,14.54,39.4,39.0,38.5,39.4,37.8,56,59,55,0.449,24.3,26.0,23.6,1.293,1.8,23,25,3.1,0.00202,0.00226,33.7,35.3,21,459,.,.,9.37,0.00,0.00
15min,AgWx,beryljct,423,28FEB2020:11:45:00,43.5,14.12,41.6,40.4,39.5,40.4,38.9,56,57,54,0.481,24.9,26.2,24.1,2.126,2.2,24,22,4.1,0.00226,0.00253,33.7,35.3,21,508,.,.,9.37,0.00,0.00
15min,AgWx,beryljct,423,28FEB2020:12:00:00,44.5,14.18,41.4,40.9,40.5,41.0,40.1,53,57,51,0.457,24.7,26.3,24.0,2.894,2.9,20,18,4.2,0.00215,0.00247,33.6,35.3,21,468,.,.,9.37,0.00,0.00
15min,AgWx,beryljct,423,28FEB2020:12:15:00,45.7,14.18,42.3,42.6,41.5,42.6,40.8,51,54,48,0.455,24.5,26.0,23.4,2.543,3.1,5.8,19,5.2,0.00291,0.00331,33.6,35.3,21,661,.,.,9.37,0.00,0.00
15min,AgWx,beryljct,423,28FEB2020:12:30:00,47.7,14.07,45.3,44.1,43.4,44.3,42.5,46,49,40,0.405,24.0,25.3,21.3,0,2.7,6.6,26,4.8,0.00375,0.00420,33.6,35.3,21,823,.,.,9.37,0.00,0.00
15min,AgWx,beryljct,423,28FEB2020:12:45:00,50.3,13.99,46.1,46.6,45.4,46.6,44.2,40,42,37,0.399,22.3,23.8,20.9,4.012,2.8,12,23,7.1,0.00402,0.00453,33.6,35.3,21,843,.,.,9.36,0.00,0.00
15min,AgWx,beryljct,423,28FEB2020:13:00:00,52.1,13.98,47.4,46.5,46.6,47.5,46.0,37,40,35,0.399,22.1,24.4,20.0,3.135,2.9,24,23,5.2,0.00323,0.00372,33.6,35.2,21,663,.,.,9.36,0.00,0.00
15min,AgWx,beryljct,423,28FEB2020:13:15:00,53.3,13.96,47.6,47.3,47.1,47.6,46.4,36,38,32,0.359,21.6,23.1,19.2,2.631,2.6,357,47,5.0,0.00316,0.00362,33.6,35.2,21,639,.,.,9.35,0.00,0.00
15min,AgWx,beryljct,423,28FEB2020:13:30:00,53.5,13.97,47.3,47.5,47.6,48.2,47.2,36,39,33,0.392,21.7,24.4,19.5,2.653,2.5,12,47,4.5,0.00220,0.00259,33.7,35.2,22,403,.,.,9.36,0.00,0.00
15min,AgWx,beryljct,423,28FEB2020:13:45:00,53.4,14.03,48.4,48.4,48.0,48.5,47.4,35,37,33,0.377,21.9,23.2,20.3,2.346,2.9,11,39,5.2,0.00276,0.00323,33.9,35.2,21,543,.,.,9.35,0.00,0.00
15min,AgWx,beryljct,423,28FEB2020:14:00:00,53.7,13.95,49.4,49.2,48.9,49.5,48.4,32,37,29,0.354,20.3,23.9,17.9,2.499,3.4,351,22,5.2,0.00260,0.00313,34.2,35.2,21,488,.,.,9.35,0.00,0.00
15min,AgWx,beryljct,423,28FEB2020:14:15:00,53.9,14.01,49.3,49.5,49.3,50.1,48.8,29,31,28,0.354,18.5,20.2,16.8,2.565,2.7,12,25,5.3,0.00233,0.00279,34.5,35.2,21,431,.,.,9.35,0.00,0.00
15min,AgWx,beryljct,423,28FEB2020:14:30:00,54.1,13.98,49.9,50.7,50.0,50.8,49.5,30,33,29,0.404,19.8,22.6,18.3,0.57,1.7,46,24,4.0,0.00231,0.00267,34.8,35.2,21,453,.,.,9.34,0.00,0.00
15min,AgWx,beryljct,423,28FEB2020:14:45:00,54.5,13.94,49.9,50.0,50.5,51.2,50.0,34,39,30,0.445,23.4,26.6,20.3,1.885,3.5,90,22,6.0,0.00222,0.00273,35.2,35.2,21,408,.,.,9.34,0.00,0.00
15min,AgWx,beryljct,423,28FEB2020:15:00:00,54.3,13.92,50.1,50.5,50.5,51.0,50.0,37,38,35,0.432,25.0,26.3,23.6,3.793,3.7,100,13,5.6,0.00197,0.00247,35.6,35.2,21,354,.,.,9.34,0.00,0.00
15min,AgWx,beryljct,423,28FEB2020:15:15:00,54.9,13.88,51.8,52.3,51.7,52.5,50.5,35,37,32,0.440,24.8,26.1,23.1,3.135,3.3,101,24,5.1,0.00320,0.00376,35.9,35.2,21,615,.,.,9.33,0.00,0.00
15min,AgWx,beryljct,423,28FEB2020:15:30:00,56.3,13.84,52.6,52.9,52.7,53.2,51.8,32,35,28,0.425,23.4,26.1,20.9,3.595,2.3,127,27,4.8,0.00240,0.00283,36.3,35.2,21,470,.,.,9.33,0.00,0.00
15min,AgWx,beryljct,423,28FEB2020:15:45:00,56.8,13.9,52.6,53.0,53.0,53.4,52.7,30,32,29,0.420,22.6,24.0,21.1,3.771,2.7,91,39,5.3,0.00177,0.00220,36.6,35.2,21,352,.,.,9.33,0.00,0.00
15min,AgWx,beryljct,423,28FEB2020:16:00:00,56.8,13.89,53.5,54.1,53.6,54.2,53.0,31,32,29,0.435,23.4,24.8,21.8,3.376,3.6,85,27,5.3,0.00178,0.00232,36.9,35.3,21,334,.,.,9.33,0.00,0.00
15min,AgWx,beryljct,423,28FEB2020:16:15:00,56.7,13.88,55.2,55.2,54.5,55.2,53.8,28,31,24,0.386,21.8,24.7,18.8,6.27,4.4,123,22,7.5,0.00171,0.00234,37.3,35.3,21,296,.,.,9.33,0.00,0.00
15min,AgWx,beryljct,423,28FEB2020:16:30:00,56.5,13.89,55.1,55.0,54.9,55.2,54.7,26,29,22,0.326,20.3,23.3,17.0,5.524,5.6,169,16,8.0,0.00164,0.00243,37.6,35.4,21,250,.,.,9.34,0.00,0.00
15min,AgWx,beryljct,423,28FEB2020:16:45:00,56.5,13.89,55.8,55.4,55.4,55.7,55.0,22,25,19,0.306,17.5,20.4,13.8,7.738,5.6,158,15,8.7,0.00173,0.00254,37.9,35.4,21,261,.,.,9.33,0.00,0.00
15min,AgWx,beryljct,423,28FEB2020:17:00:00,56.4,13.93,55.4,55.5,55.5,55.7,55.3,22,25,20,0.351,17.5,20.2,15.5,7.125,7.1,178,11,9.4,0.00175,0.00273,38.1,35.5,21,223,.,.,9.33,0.00,0.00
15min,AgWx,beryljct,423,28FEB2020:17:15:00,56.6,13.91,56.0,55.9,55.9,56.4,55.4,22,26,20,0.316,17.1,20.9,14.9,5.919,8.0,179,12,12.0,0.00225,0.00336,38.3,35.6,21,297,.,.,9.33,0.00,0.00
15min,AgWx,beryljct,423,28FEB2020:17:30:00,56.9,13.86,55.1,55.1,55.4,55.9,55.1,24,26,21,0.377,19.0,21.4,16.4,6.489,7.8,165,11,10.5,0.00095,0.00119,38.5,35.6,21,217,.,.,9.33,0.00,0.00
15min,AgWx,beryljct,423,28FEB2020:17:45:00,56.5,13.65,54.0,53.9,54.4,55.1,53.8,27,28,25,0.359,21.0,22.5,19.0,6.007,6.9,165,8.0,10.2,0.00075,0.00095,38.7,35.7,21,147,.,.,9.33,0.00,0.00
15min,AgWx,beryljct,423,28FEB2020:18:00:00,55.1,13.95,51.5,51.9,53.0,53.9,51.9,29,33,25,0.435,21.7,23.7,18.9,4.187,4.8,159,7.2,7.0,0.00047,0.00064,38.8,35.8,21,84,.,.,9.33,0.00,0.00
15min,AgWx,beryljct,423,28FEB2020:18:15:00,53.4,13.2,49.7,50.2,51.0,51.9,50.2,35,37,33,0.464,24.5,25.3,23.6,3.244,4.3,165,6.6,5.3,0.00031,0.00043,38.9,35.9,21,45,.,.,9.33,0.00,0.00
15min,AgWx,beryljct,423,28FEB2020:18:30:00,51.1,13.12,47.5,48.1,49.0,50.2,48.1,39,42,36,0.447,24.9,27.0,23.2,5.174,3.5,217,27,5.2,0.00013,0.00021,39.0,35.9,21,11,.,.,9.33,0.00,0.00
15min,AgWx,beryljct,423,28FEB2020:18:45:00,48.9,13.07,48.6,48.3,48.2,49.0,47.0,36,40,32,0.372,22.2,24.5,20.0,3.749,3.1,210,6.4,5.3,0.00010,0.00017,39.0,36.0,21,1,.,.,9.34,0.00,0.00
15min,AgWx,beryljct,423,28FEB2020:19:00:00,47.2,13.06,47.3,47.5,47.9,48.7,46.8,33,35,31,0.363,19.9,20.7,19.2,3.288,3.9,206,5.8,4.8,0.00017,0.00026,39.0,36.1,21,0,.,.,9.34,0.00,0.00
15min,AgWx,beryljct,423,28FEB2020:19:15:00,45.6,13.04,45.2,44.0,44.4,47.4,42.1,40,46,33,0.397,21.4,22.9,19.4,4.121,3.3,210,8.9,4.9,0.00008,0.00014,39.0,36.2,22,0,.,.,9.34,0.00,0.00
15min,AgWx,beryljct,423,28FEB2020:19:30:00,43.9,13.02,44.2,43.1,43.7,45.2,42.2,41,44,37,0.392,21.2,22.2,20.3,3.946,4.1,200,11,4.8,0.00013,0.00020,38.9,36.3,21,0,.,.,9.34,0.00,0.00
15min,AgWx,beryljct,423,28FEB2020:19:45:00,42.4,13.01,44.1,43.3,42.3,43.3,41.1,43,45,40,0.379,21.2,21.8,20.5,5.48,4.8,189,11,5.8,0.00016,0.00023,38.9,36.3,21,0,.,.,9.34,0.00,0.00
15min,AgWx,beryljct,423,28FEB2020:20:00:00,41.2,12.97,38.2,36.6,41.2,44.3,35.6,45,60,37,0.428,21.2,23.4,19.9,4.253,5.1,185,21,6.3,0.00017,0.00023,38.8,36.4,21,0,.,.,9.34,0.00,0.00
15min,AgWx,beryljct,423,28FEB2020:20:15:00,39.2,12.99,34.5,34.2,34.7,37.0,33.6,63,66,56,0.424,23.2,23.6,22.4,6.182,5.3,159,6.8,6.4,0.00006,0.00009,38.6,36.5,21,0,.,.,9.35,0.01,0.00
15min,AgWx,beryljct,423,28FEB2020:20:30:00,37.4,12.97,38.0,36.0,33.1,36.0,31.5,67,72,61,0.433,23.2,24.2,22.4,5.393,2.9,234,83,5.8,-0.00004,-0.00004,38.5,36.5,21,0,.,.,9.35,0.00,0.00
15min,AgWx,beryljct,423,28FEB2020:20:45:00,35.9,12.97,37.6,35.7,33.6,36.4,31.2,66,74,58,0.428,23.5,24.7,22.0,2.85,2.5,334,21,5.6,-0.00006,-0.00007,38.4,36.6,21,0,.,.,9.35,0.00,0.00
15min,AgWx,beryljct,423,28FEB2020:21:00:00,34.9,12.96,35.8,35.5,35.0,36.5,33.8,62,65,59,0.426,23.3,23.7,22.7,1.008,0.7,264,57,4.6,-0.00019,-0.00028,38.2,36.7,21,0,.,.,9.35,0.00,0.00
15min,AgWx,beryljct,423,28FEB2020:21:15:00,34.2,12.94,38.4,35.9,35.4,36.0,34.2,61,63,60,0.431,23.2,23.6,22.5,3.069,1.8,180,23,3.8,-0.00010,-0.00011,38.1,36.7,21,0,.,.,9.35,0.00,0.00
15min,AgWx,beryljct,423,28FEB2020:21:30:00,33.7,12.94,33.2,32.3,33.0,36.4,30.5,67,75,59,0.432,23.1,24.0,21.9,3.683,2.8,189,26,4.5,-0.00005,-0.00005,38.0,36.7,21,0,.,.,9.36,0.00,0.00
15min,AgWx,beryljct,423,28FEB2020:21:45:00,33.1,12.93,38.9,35.8,33.5,36.2,31.0,64,72,54,0.396,22.4,23.7,20.9,1.995,2.6,220,23,4.3,-0.00005,-0.00005,37.8,36.8,21,0,.,.,9.36,0.00,0.00
15min,AgWx,beryljct,423,28FEB2020:22:00:00,33.0,12.92,31.3,33.0,35.6,38.4,33.0,56,64,49,0.392,21.5,22.9,20.3,0,2.6,235,18,4.0,-0.00003,-0.00002,37.7,36.8,21,0,.,.,9.36,0.00,0.00
15min,AgWx,beryljct,423,28FEB2020:22:15:00,32.6,12.91,33.6,31.9,31.8,32.7,31.1,68,71,63,0.410,22.3,23.3,21.5,2.017,1.3,351,67,3.2,-0.00013,-0.00017,37.6,36.8,22,0,.,.,9.36,0.00,0.00
15min,AgWx,beryljct,423,28FEB2020:22:30:00,32.1,12.9,29.2,28.7,30.6,33.7,27.8,68,78,61,0.413,21.4,22.5,19.6,4.472,2.6,74,37,4.7,-0.00006,-0.00006,37.5,36.8,21,0,.,.,9.36,0.00,0.00
15min,AgWx,beryljct,423,28FEB2020:22:45:00,31.1,12.89,29.3,28.8,28.3,29.1,27.3,79,82,76,0.416,22.6,23.2,21.6,1.973,2.2,174,42,4.8,-0.00010,-0.00012,37.3,36.9,21,0,.,.,9.36,0.00,0.00
15min,AgWx,beryljct,423,28FEB2020:23:00:00,30.3,12.88,27.4,27.9,29.2,29.9,27.9,74,78,72,0.401,22.1,22.8,20.8,2.959,1.9,159,19,3.2,-0.00011,-0.00013,37.2,36.9,21,0,.,.,9.36,0.00,0.00
15min,AgWx,beryljct,423,28FEB2020:23:15:00,29.6,12.86,26.2,26.5,27.3,27.9,26.5,80,83,78,0.398,22.0,23.0,21.3,1.841,2.5,172,8.8,3.5,-0.00009,-0.00010,37.1,36.9,21,0,.,.,9.37,0.00,0.00
15min,AgWx,beryljct,423,28FEB2020:23:30:00,28.8,12.86,26.5,26.2,26.1,26.4,25.6,84,85,82,0.403,21.9,22.3,21.3,3.179,1.1,193,41,3.2,-0.00015,-0.00020,37.0,36.9,21,0,.,.,9.37,0.00,0.00
15min,AgWx,bigpiney,439,28FEB2020:00:00:00,14.0,12.69,8.2,7.6,7.7,9.9,6.2,72,74,68,0.156,0.6,2.8,-1.4,7.848,7.5,233,4.0,9.0,0.00002,0.00003,29.2,30.3,11,0,0,0.0,5.83,0.00,0.00
15min,AgWx,bigpiney,439,28FEB2020:00:15:00,13.0,12.69,9.0,8.4,7.7,8.4,6.6,72,73,71,0.162,0.7,1.6,-0.7,7.322,7.7,239,10,10.1,0.00002,0.00003,29.2,30.1,11,0,0,0.0,5.83,0.00,0.00
15min,AgWx,bigpiney,439,28FEB2020:00:30:00,12.4,12.67,5.7,5.5,7.8,8.8,5.5,71,72,70,0.138,0.3,1.3,-2.0,5.941,7.5,233,5.3,9.5,0.00002,0.00003,29.2,30.2,11,0,0,0.0,5.83,0.00,0.00
15min,AgWx,bigpiney,439,28FEB2020:00:45:00,11.8,12.67,7.6,6.8,7.3,12.4,5.5,72,76,66,0.153,0.1,5.8,-1.9,6.292,5.8,234,29,9.2,0.00001,0.00001,29.2,30.2,11,0,0,0.0,5.83,0.00,0.00
15min,AgWx,bigpiney,439,28FEB2020:01:00:00,11.4,12.66,7.0,7.1,8.8,9.9,6.8,71,75,68,0.145,1.5,2.5,-1.0,3.113,5.4,246,15,8.6,0.00000,0.00001,29.2,30.2,11,0,0,0.0,5.83,0.00,0.00
15min,AgWx,bigpiney,439,28FEB2020:01:15:00,11.1,12.65,8.2,9.6,9.7,12.0,7.0,71,73,66,0.156,2.1,4.0,-1.0,1.403,3.5,269,50,7.6,-0.00002,-0.00002,29.2,30.2,11,0,0,0.0,5.83,0.00,0.00
15min,AgWx,bigpiney,439,28FEB2020:01:30:00,11.0,12.65,12.8,11.7,11.9,15.8,8.9,68,72,61,0.170,3.4,6.4,0.2,4.406,1.9,314,95,4.4,-0.00006,-0.00007,29.2,30.2,11,0,0,0.0,5.83,0.00,0.00
15min,AgWx,bigpiney,439,28FEB2020:01:45:00,11.0,12.64,10.7,9.5,12.0,14.1,9.2,67,69,64,0.161,3.1,5.1,-0.1,3.223,2.9,43,9.4,5.3,-0.00003,-0.00003,29.2,30.3,11,0,0,0.0,5.83,0.00,0.00
15min,AgWx,bigpiney,439,28FEB2020:02:00:00,10.8,12.63,6.0,5.4,6.8,9.8,5.1,72,75,67,0.146,-0.4,1.8,-2.2,1.688,3.7,1.1,20,8.1,-0.00002,-0.00001,29.2,30.3,11,0,0,0.0,5.83,0.00,0.00
15min,AgWx,bigpiney,439,28FEB2020:02:15:00,10.3,12.63,6.4,7.5,6.8,8.3,5.3,77,79,74,0.164,1.0,3.0,-1.1,2.521,1.9,313,65,4.2,-0.00006,-0.00007,29.2,30.2,11,0,0,0.0,5.83,0.00,0.00
15min,AgWx,bigpiney,439,28FEB2020:02:30:00,9.7,12.62,9.4,8.9,7.8,8.9,6.8,77,78,76,0.175,2.1,3.2,0.8,4.779,4.6,298,8.8,6.2,-0.00001,-0.00001,29.2,30.2,11,0,0,0.0,5.83,0.00,0.00
15min,AgWx,bigpiney,439,28FEB2020:02:45:00,9.4,12.6,12.0,11.6,10.3,13.8,7.7,75,78,68,0.179,4.0,6.7,1.2,3.749,3.2,271,15,4.8,-0.00003,-0.00003,29.2,30.2,11,0,0,0.0,5.83,0.00,0.00
15min,AgWx,bigpiney,439,28FEB2020:03:00:00,9.2,12.6,15.9,14.8,12.7,14.8,11.4,72,73,70,0.207,5.4,7.1,3.7,0.044,2.1,271,11,3.7,-0.00006,-0.00007,29.2,30.2,11,0,0,0.0,5.83,0.00,0.00
15min,AgWx,bigpiney,439,28FEB2020:03:15:00,9.3,12.59,10.1,9.3,12.8,15.2,8.2,69,74,63,0.148,4.7,6.9,-1.5,7.541,3.0,236,24,7.6,-0.00003,-0.00004,29.2,30.2,11,0,0,0.0,5.83,0.00,0.00
15min,AgWx,bigpiney,439,28FEB2020:03:30:00,9.2,12.59,13.8,12.6,13.5,16.5,8.6,69,75,62,0.174,5.2,7.5,-0.4,2.411,3.4,249,32,7.3,-0.00002,-0.00002,29.2,30.2,11,0,0,0.0,5.83,0.00,0.00
15min,AgWx,bigpiney,439,28FEB2020:03:45:00,9.3,12.58,9.8,7.9,10.7,13.7,7.9,71,76,66,0.150,3.1,5.7,-0.4,5.086,1.5,232,48,6.5,-0.00007,-0.00009,29.2,30.3,11,0,0,0.0,5.83,0.00,0.00
15min,AgWx,bigpiney,439,28FEB2020:04:00:00,9.1,12.57,14.0,11.4,8.7,12.6,4.7,73,80,68,0.198,1.8,6.1,-2.6,3.398,4.6,208,13,7.2,-0.00001,-0.00000,29.2,30.3,11,0,0,0.0,5.83,0.00,0.00
15min,AgWx,bigpiney,439,28FEB2020:04:15:00,8.8,12.56,16.1,14.9,12.7,14.9,10.6,71,77,68,0.204,5.1,6.5,2.7,2.148,4.5,230,7.7,6.4,-0.00001,-0.00000,29.2,30.3,11,0,0,0.0,5.83,0.00,0.00
15min,AgWx,bigpiney,439,28FEB2020:04:30:00,8.8,12.55,6.7,7.1,14.2,16.9,7.1,66,69,61,0.144,4.9,7.4,-1.4,2.368,1.5,310,54,3.9,-0.00008,-0.00009,29.2,30.2,11,0,0,0.0,5.83,0.00,0.00
15min,AgWx,bigpiney,439,28FEB2020:04:45:00,8.9,12.55,11.3,10.1,9.3,10.5,6.9,75,76,69,0.181,2.9,4.3,-1.0,0.767,1.7,311,24,4.1,-0.00006,-0.00008,29.2,30.3,11,0,0,0.0,5.83,0.00,0.00
15min,AgWx,bigpiney,439,28FEB2020:05:00:00,8.8,12.54,12.9,12.1,9.9,12.1,5.9,75,79,68,0.201,3.6,6.1,-2.3,1.841,2.8,230,22,4.6,-0.00004,-0.00004,29.2,30.3,11,0,0,0.0,5.83,0.00,0.00
15min,AgWx,bigpiney,439,28FEB2020:05:15:00,8.5,12.53,12.4,10.4,9.8,12.8,5.2,75,80,68,0.191,3.5,6.3,-3.0,0.197,0.8,260,35,3.0,-0.00010,-0.00014,29.2,30.3,11,0,0,0.0,5.83,0.00,0.00
15min,AgWx,bigpiney,439,28FEB2020:05:30:00,8.0,12.53,7.8,7.2,9.5,11.1,6.0,76,79,69,0.150,3.4,5.5,-1.8,0.592,0.8,302,63,4.3,-0.00010,-0.00013,29.2,30.3,11,0,0,0.0,5.83,0.00,0.00
15min,AgWx,bigpiney,439,28FEB2020:05:45:00,7.5,12.52,9.8,9.5,9.1,9.9,7.2,77,78,72,0.180,3.3,4.3,-0.1,1.556,0.8,93,25,1.7,-0.00010,-0.00014,29.2,30.3,11,0,0,0.0,5.83,0.00,0.00
15min,AgWx,bigpiney,439,28FEB2020:06:00:00,7.2,12.51,6.3,4.3,7.0,9.6,4.3,77,81,74,0.137,1.2,3.7,-2.2,5.261,4.8,206,17,7.3,-0.00001,-0.00001,29.2,30.3,11,0,0,0.0,5.83,0.00,0.00
15min,AgWx,bigpiney,439,28FEB2020:06:15:00,6.7,12.51,1.3,2.1,5.2,8.6,2.1,77,81,71,0.128,-0.6,3.3,-4.0,3.749,3.2,241,19,5.1,-0.00003,-0.00003,29.2,30.3,11,0,0,0.0,5.83,0.00,0.00
15min,AgWx,bigpiney,439,28FEB2020:06:30:00,5.9,12.49,6.6,6.0,3.8,7.2,0.6,80,83,76,0.158,-1.1,3.0,-5.2,2.565,3.8,253,9.7,5.7,-0.00002,-0.00002,29.2,30.2,11,0,0,0.0,5.83,0.00,0.00
15min,AgWx,bigpiney,439,28FEB2020:06:45:00,5.6,12.49,6.2,5.7,5.5,6.1,4.9,81,82,79,0.162,0.8,1.5,0.2,2.85,2.3,288,13,3.0,-0.00005,-0.00006,29.2,30.3,11,0,0,0.0,5.83,0.00,0.00
15min,AgWx,bigpiney,439,28FEB2020:07:00:00,5.4,12.54,6.9,5.9,5.7,6.3,4.5,82,84,81,0.168,1.4,2.2,0.1,3.025,2.9,272,12,5.3,-0.00004,-0.00004,29.2,30.3,11,4,0,0.0,5.83,0.00,0.00
15min,AgWx,bigpiney,439,28FEB2020:07:15:00,5.2,13,3.9,5.3,6.0,7.3,4.9,82,84,78,0.154,1.6,3.2,-0.1,2.302,3.3,262,12,5.7,-0.00009,-0.00007,29.2,30.3,11,24,0,0.0,5.83,0.00,0.00
15min,AgWx,bigpiney,439,28FEB2020:07:30:00,5.2,15.01,1.9,2.7,3.1,5.0,1.2,81,84,76,0.139,-1.5,0.7,-4.7,4.362,3.2,270,18,5.9,-0.00003,-0.00000,29.2,30.2,11,56,0,0.0,5.83,0.00,0.00
15min,AgWx,bigpiney,439,28FEB2020:07:45:00,5.3,15.06,4.5,5.1,3.9,7.3,1.0,81,85,76,0.155,-0.7,3.6,-4.1,7.234,6.1,246,8.6,8.2,0.00007,0.00011,29.2,30.3,11,94,0,0.0,5.83,0.00,0.00
15min,AgWx,bigpiney,439,28FEB2020:08:00:00,5.9,14.99,7.9,5.5,4.1,5.5,3.3,80,81,78,0.157,-0.7,1.0,-1.9,5.941,6.4,240,4.0,7.6,0.00014,0.00019,29.2,30.3,11,136,0,0.0,5.83,0.00,0.00
15min,AgWx,bigpiney,439,28FEB2020:08:15:00,7.0,14.98,4.1,4.1,5.8,7.4,3.9,79,82,78,0.145,0.7,2.8,-1.5,1.644,3.4,304,62,6.4,0.00021,0.00026,29.2,30.3,11,179,0,0.0,5.83,0.00,0.00
15min,AgWx,bigpiney,439,28FEB2020:08:30:00,8.6,14.99,5.1,4.7,3.8,5.0,2.8,80,81,79,0.152,-1.0,0.5,-2.4,0,0.3,88,44,1.4,0.00030,0.00032,29.2,30.3,11,226,0,0.0,5.83,0.00,0.00